#timestamp,LO_Frequency,Hit,StdDev 
1506938415.7,286047000.9,N
1506938435.6,286047000.8,N
1506938455.4,286046999.7,N
1506938475.3,286047001.8,N
1506938495.1,286047000.3,N
1506938496.0,286047000.3,N
1506938515.8,286047004.0,N
1506938535.7,286047001.3,N
1506938555.5,286047001.0,N
1506938575.3,286047000.7,N
1506938595.1,286047003.0,N
1506938615.9,286047004.3,N
1506938635.7,286047004.0,N
1506938655.5,286047002.5,N
1506938675.4,286047005.5,N
1506938695.2,286047004.4,N
1506938715.0,286047000.3,N
1506938715.9,286047000.3,N
1506938735.8,286047002.6,N
1506938755.6,286047004.3,N
1506938775.4,286047002.5,N
1506938795.3,286047003.9,N
1506938815.1,286047003.2,N
1506938816.0,286047003.2,N
1506938835.8,286047000.2,N
1506938855.7,286047000.0,N
1506938875.5,286047002.8,N
1506938895.3,286047002.8,N
1506938915.2,286047007.2,Y
1506938935.9,286047004.5,P
1506938955.7,286047005.8,P
1506938975.6,286046999.9,N
1506938995.4,286046998.1,N
1506939015.2,286046998.8,N
1506939035.1,286046995.3,N
1506939036.0,286046995.3,N
1506939055.8,286047000.2,N
1506939075.6,286047002.2,N
1506939095.4,286047000.0,N
1506939115.3,286047000.7,N
1506939135.1,286047000.4,N
1506939155.8,286047002.4,N
1506939175.7,286047000.2,N
1506939195.5,286047003.9,N
1506939215.3,286046999.9,N
1506939235.2,286047001.2,N
1506939255.9,286046999.5,N
1506939275.7,286046999.3,N
1506939295.6,286046998.8,N
1506939315.4,286046996.8,N
1506939335.2,286046996.8,N
1506939355.1,286047000.0,N
1506939356.0,286047000.0,N
1506939375.8,286046999.3,N
1506939395.6,286046997.7,N
1506939415.4,286046999.3,N
1506939435.3,286046999.2,N
1506939455.1,286046999.1,N
1506939475.8,286047000.4,N
1506939495.7,286047000.5,N
1506939515.5,286046999.2,N
1506939535.3,286046997.5,N
1506939555.2,286046997.3,N
1506939575.9,286046999.1,N
1506939595.7,286046995.2,N
1506939615.6,286046998.6,N
1506939635.4,286046995.6,N
1506939655.2,286046991.7,Y
1506939675.1,286046994.2,P
1506939676.0,286046994.2,N
1506939695.8,286046997.6,N
1506939715.6,286046993.7,N
1506939735.5,286046992.2,Y
1506939755.3,286046996.8,P
1506939775.1,286047000.8,N
1506939795.9,286046996.9,N
1506939815.7,286047004.0,N
1506939835.5,286047002.0,N
1506939855.4,286046998.1,N
1506939875.2,286046996.5,N
1506939895.0,286046999.4,N
1506939895.9,286046999.4,N
1506939915.8,286046999.9,N
1506939935.6,286046995.2,N
1506939955.4,286046999.3,N
1506939975.2,286047002.6,N
1506939995.1,286047004.2,N
1506939996.0,286047004.2,N
1506940015.8,286047001.7,N
1506940035.6,286047003.5,N
1506940055.5,286047006.3,N
1506940075.3,286047004.8,N
1506940095.1,286047003.2,N
1506940115.9,286047004.1,N
1506940135.7,286047002.3,N
1506940155.5,286047003.6,N
1506940175.4,286046999.7,N
1506940195.2,286046998.3,N
1506940215.0,286046999.4,N
1506940215.9,286046999.4,N
1506940235.8,286046998.5,N
1506940255.6,286047000.1,N
1506940275.4,286047005.4,N
1506940295.3,286047007.6,N
1506940315.1,286047003.9,N
1506940316.0,286047003.9,N
1506940335.8,286047002.2,N
1506940355.6,286047001.0,N
1506940375.5,286047002.4,N
1506940395.3,286047004.4,N
1506940415.1,286047003.7,N
1506940435.9,286047007.2,N
1506940455.7,286047007.2,N
1506940475.5,286047005.5,N
1506940495.4,286047005.6,N
1506940515.2,286047007.6,N
1506940535.0,286047006.7,N
1506940535.9,286047006.7,N
1506940555.8,286047003.9,N
1506940575.6,286047004.2,N
1506940595.4,286047005.7,N
1506940615.3,286047005.5,N
1506940635.1,286047001.6,N
1506940636.0,286047001.6,N
1506940655.8,286047003.8,N
1506940675.7,286047005.6,N
1506940695.5,286047002.7,N
1506940715.3,286046998.4,N
1506940735.2,286046997.0,N
1506940755.9,286046998.3,N
1506940775.7,286047002.1,N
1506940795.6,286047005.9,N
1506940815.4,286047006.6,N
1506940835.2,286047006.9,N
1506940855.0,286047004.7,N
1506940855.9,286047004.7,N
1506940875.8,286047008.8,Y
1506940895.6,286047002.1,P
1506940915.4,286046999.8,N
1506940935.3,286046996.8,N
1506940955.1,286046999.5,N
1506940975.9,286046998.4,N
1506940995.7,286046999.9,N
1506941015.5,286047002.6,N
1506941035.3,286046999.5,N
1506941055.2,286046996.8,N
1506941075.0,286046997.6,N
1506941075.9,286046997.6,N
1506941095.8,286046993.3,Y
1506941115.6,286046999.3,P
1506941135.4,286046996.6,P
1506941155.2,286046994.5,P
1506941175.1,286046996.2,N
1506941176.0,286046996.2,N
1506941195.8,286046996.6,N
1506941215.6,286046998.1,N
1506941235.5,286046998.6,N
1506941255.3,286046993.5,Y
1506941275.1,286046998.2,P
1506941295.9,286047003.4,P
1506941315.7,286047003.8,N
1506941335.5,286047005.2,N
1506941355.4,286047002.1,N
1506941375.2,286047003.1,N
1506941395.0,286047003.5,N
1506941395.9,286047003.5,N
1506941415.8,286047001.5,N
1506941435.6,286047001.7,N
1506941455.4,286047003.2,N
1506941475.3,286047002.1,N
1506941495.1,286046999.0,N
1506941496.0,286046999.0,N
1506941515.8,286047002.0,N
1506941535.7,286047003.9,N
1506941555.5,286047007.2,Y
1506941575.3,286047001.2,P
1506941595.2,286046997.0,P
1506941615.9,286046996.9,N
1506941635.7,286046997.2,N
1506941655.5,286046995.4,N
1506941675.4,286046998.9,N
1506941695.2,286046998.8,N
1506941715.0,286046994.9,N
1506941715.9,286046994.9,N
1506941735.8,286046995.9,N
1506941755.6,286046997.0,N
1506941775.4,286046995.8,N
1506941795.3,286046992.3,Y
1506941815.1,286046999.5,P
1506941835.8,286047001.5,N
1506941855.7,286046998.4,N
1506941875.5,286047002.7,N
1506941895.3,286047003.8,N
1506941915.2,286047001.9,N
1506941935.9,286047004.0,N
1506941955.7,286047000.2,N
1506941975.6,286047004.1,N
1506941995.4,286047005.3,N
